Regional Weather Roundup
Issued by NWS

Home | Current Version | Previous Version | Graphics & Text | Print | Product List | Glossary On
Versions: 1 2 3 4 5 6 7 8 9 10 11 12 13 14 15 16 17 18 19 20 21 22 23 24 25 26 27 28 29 30 31 32 33 34 35 36 37 38 39 40 41 42 43 44 45 46 47 48 49 50
000
ASUS43 KBIS 200610
RWRND

NORTH DAKOTA REGIONAL WEATHER ROUNDUP
NATIONAL WEATHER SERVICE BISMARCK ND
100 AM CDT WED AUG 20 2014

NOTE: "FAIR" INDICATES FEW OR NO CLOUDS BELOW 12,000 FEET WITH NO
SIGNIFICANT WEATHER AND/OR OBSTRUCTIONS TO VISIBILITY.


NDZ001>003-009>011-017-200700-
NORTHWEST NORTH DAKOTA

CITY           SKY/WX    TMP DP  RH WIND       PRES   REMARKS
WILLISTON      MOCLDY    75  60  59 SE6       29.64S
6HR MIN TEMP:  74; 6HR MAX TEMP:  90;

MINOT          FAIR      65  60  84 SE6       29.69F
MINOT AFB      FAIR      64  63  99 SE6       29.69S
$$

NDZ018>021-031>035-040>046-200700-
SOUTHWEST NORTH DAKOTA

CITY           SKY/WX    TMP DP  RH WIND       PRES   REMARKS
BISMARCK       PTCLDY    69  61  75 E5        29.73S
6HR MIN TEMP:  68; 6HR MAX TEMP:  85;

DICKINSON      PTCLDY    67  58  72 S8        29.69S
GARRISON         N/A     68  64  87 SE6       29.71S
6HR MIN TEMP:  67; 6HR MAX TEMP:  82;

HETTINGER ARPT CLEAR     67  57  70 SE6       29.73S
$$

NDZ004>008-012>016-024-026-027-054-200700-
NORTHEAST NORTH DAKOTA

CITY           SKY/WX    TMP DP  RH WIND       PRES   REMARKS
GRAND FORKS    FAIR      66  62  87 SE5       29.76R
GRND FRKS AFB  FAIR      66  66  99 SE5       29.77R
DEVILS LAKE    FAIR      70  63  78 S12       29.74S
$$

NDZ022-023-025-028>030-036>039-047>053-200700-
SOUTHEAST NORTH DAKOTA

CITY           SKY/WX    TMP DP  RH WIND       PRES   REMARKS
FARGO          FAIR      67  63  87 SE6       29.76F
6HR MIN TEMP:  67; 6HR MAX TEMP:  80;

JAMESTOWN      FAIR      66  63  90 SE5       29.77R
$$



USA.gov is the U.S. government's official web portal to all federal, state and local government web resources and services.